Location: Vesunti
(61.5000°N, 22.8333°E)
Time: 04:58:59
(UTC+00:00)

Cosmos 220 Rocket - Pass Details

Date: 17 February 2020
Orbit: 576 x 616 km, 74.0° (Epoch: 29 March)

Event Time Altitude Azimuth Distance (km) Brightness Sun altitude
Exits shadow 04:19:18 - 326° (NNW) 2,251 6.6 -13.5°
Reaches altitude 10° 04:20:08 10° 327° (NNW) 1,916 6.3 -13.4°
Maximum altitude 04:24:24 72° 52° (NE) 615 4.2 -12.9°
Drops below altitude 10° 04:28:37 10° 138° (SE) 1,892 7.2 -12.4°
Sets 04:30:49 0° 141° (SE) 2,786 8.1 -12.1°
